UFO 10 (USA 146)

Last updated on Thu Nov 21 2024 00:02:40 GMT+0000 (Coordinated Universal Time)

1 25967U 99063A 24325.00485022 -.00000188 00000+0 00000+0 0 9999 2 25967 9.5775 29.9587 0006503 215.6831 152.8657 1.00270872 91599
UTC large
Height (km)
Speed (km/s)
/
Latitude / Longitude
Inclination (degrees)
Orbital Period (minutes)
Azimuth
Elevation
Range (km)
Doppler Factor

Next 0 passes for location: London (51.5072 / 0.1276)

Sorry there are no passes over London.